World > North America > United States > Oregon > Gladstone

Hourly Gladstone, OR Regional Weather

Feedback E-mail the Weather

Quick WX

Gladstone, OR Weather Maps

°F °C°F °C
Gladstone Weather Map
UTC Time: 8/8/2022, 11:16
Your Time:

Gladstone, OR Regional Weather

Expires:202208081200;;672347
ASUS46 KPQR 081110
RWROR 

OREGON REGIONAL WEATHER ROUNDUP
NATIONAL WEATHER SERVICE PORTLAND OR
400 AM PDT MON AUG 08 2022

NOTE: "FAIR" INDICATES FEW OR NO CLOUDS BELOW 12,000 FEET WITH
NO SIGNIFICANT WEATHER AND/OR OBSTRUCTIONS TO VISIBILITY.


ORZ001>013-081200-
NORTHWEST OREGON

  
CITY           SKY/WX    TMP DP  RH WIND       PRES   REMARKS
ASTORIA        CLOUDY    56  54  93 S5        30.00S                  
TILLAMOOK      CLOUDY    55  54  94 CALM      30.03S                  
NEWPORT        CLOUDY    55  54  94 S3        30.04S FOG              
FLORENCE       CLOUDY    57  57 100 SW5       30.03S                  
PORTLAND       CLEAR     70  55  59 VRB3      29.94R                  
VANCOUVER WA   CLEAR     70  52  52 CALM      29.94R                  
SCAPPOOSE      CLEAR     64  55  72 CALM      29.93R                  
HILLSBORO      CLEAR     63  54  72 CALM      29.94R                  
AURORA         CLEAR     63  54  72 S3        29.96R                  
MCMINNVILLE    CLEAR     58  52  80 W8        29.95S                  
SALEM          CLEAR     60  53  77 SE3       29.95S                  
CORVALLIS      CLEAR     57  53  86 NW13      29.98S                  
EUGENE         CLEAR     59  54  83 SW13      29.99R                  
CRESWELL       CLOUDY    57  54  88 W6        29.99R                  
$$


SKY/WX - Weather  TMP - Temperature  DP - Dew Point  RH - Humidity
WIND - Wind Direction/Speed PRES - Barometric Pressure VSB - Visibility
WCI - Wind Chill Index E13G22 Wind - East Wind 13 mph/Gusts of 22 mph

Trending Headlines

Gladstone Radar Loop



Gladstone Quick Facts


National Two Day Weather Forecast


E-mail the Gladstone Weather Forecast

Voice your opinion or tell us about page issues...